Dubuque, IA

9:04 AM CDT on October 23, 2017 (GMT -0500)
Dubuque Regional

Weather History for KDBQ - April, 2014

Change the Weather History Date:

Saturday, April 26, 2014

  Actual Average Record
Temperature  
Mean Temperature 52 °F 52 °F  
Max Temperature 62 °F 63 °F 83 °F (1962)
Min Temperature 41 °F 42 °F 28 °F (1956)
Degree Days  
Heating Degree Days 13 13  
Month to date heating degree days 487 461  
Since 1 July heating degree days 8022 6772  
Cooling Degree Days 0 0  
Month to date cooling degree days 0 0  
Year to date cooling degree days 0 0  
Growing Degree Days 2 (Base 50)    
Moisture  
Dew Point 35 °F    
Average Humidity 60    
Maximum Humidity 80    
Minimum Humidity 39    
Precipitation  
Precipitation 0.00 in 0.14 in 1.35 in (1954)
Month to date precipitation 4.28 3.12  
Year to date precipitation 7.90 8.14  
Snow  
Snow 0.00 in 0.00 in - ()
Month to date snowfall 0.7 1.9  
Since 1 July snowfall 63.3 41.8  
Snow Depth 0.00 in    
Sea Level Pressure  
Sea Level Pressure 29.93 in    
Wind  
Wind Speed 15 mph (ENE)    
Max Wind Speed 26 mph    
Max Gust Speed 35 mph    
Visibility 10 miles    
Events      
T = Trace of Precipitation, MM = Missing Value Source: NWS Daily Summary

Daily Weather History Graph

Daily Weather History Graph

Search for Another Location

Airport or City:

Trip Planner

Search our weather history database for the weather conditions in past years. The results will help you decide how hot, cold, wet, or windy it might be!

Date:

Astronomy

Apr. 26, 2014 Rise Set
Actual Time 6:04 AM CDT 7:56 PM CDT
Civil Twilight 5:34 AM CDT 8:27 PM CDT
Nautical Twilight 4:58 AM CDT 9:04 PM CDT
Astronomical Twilight 4:18 AM CDT 9:44 PM CDT
Moon 4:32 AM CDT (4/26) 5:22 PM CDT (4/26)
Length of Visible Light 14h 52m
Length of Day
13h 52m
Waning Crescent, 8% of the Moon is Illuminated
Apr 26
Waning Crescent
Apr 29
New
May 6
First Quarter
May 14
Full
May 21
Last Quarter

Hourly Weather History & Observations

Time (CDT) Temp. Windchill Dew Point Humidity Pressure Visibility Wind Dir Wind Speed Gust Speed Precip Events Conditions
12:53 AM 50.0 °F - 39.9 °F 68% 29.86 in 10.0 mi Calm Calm - N/A   Overcast
1:53 AM 50.0 °F - 41.0 °F 71% 29.86 in 10.0 mi Calm Calm - N/A   Overcast
2:53 AM 48.9 °F - 42.1 °F 77% 29.86 in 10.0 mi Calm Calm - N/A   Overcast
3:53 AM 46.9 °F - 37.9 °F 71% 29.88 in 10.0 mi NE 16.1 mph - N/A   Overcast
4:53 AM 44.1 °F 35.9 °F 37.0 °F 76% 29.91 in 10.0 mi NE 19.6 mph - N/A   Clear
5:53 AM 42.1 °F 34.2 °F 35.1 °F 76% 29.93 in 10.0 mi NE 16.1 mph - N/A   Clear
6:53 AM 42.1 °F 35.2 °F 35.1 °F 76% 29.94 in 10.0 mi NE 12.7 mph - N/A   Clear
7:53 AM 44.1 °F 37.1 °F 32.0 °F 63% 29.96 in 10.0 mi NE 15.0 mph - N/A   Clear
8:53 AM 46.0 °F 39.9 °F 30.9 °F 56% 29.96 in 10.0 mi NE 13.8 mph - N/A   Clear
9:53 AM 50.0 °F - 33.1 °F 52% 29.97 in 10.0 mi NE 15.0 mph - N/A   Clear
10:53 AM 53.1 °F - 34.0 °F 48% 29.97 in 10.0 mi NE 13.8 mph - N/A   Clear
11:53 AM 55.9 °F - 35.1 °F 45% 29.97 in 10.0 mi ENE 13.8 mph - N/A   Clear
12:53 PM 59.0 °F - 36.0 °F 42% 29.96 in 10.0 mi NE 15.0 mph - N/A   Clear
1:53 PM 60.1 °F - 35.1 °F 39% 29.95 in 10.0 mi East 16.1 mph - N/A   Clear
2:53 PM 61.0 °F - 35.1 °F 38% 29.94 in 10.0 mi ENE 17.3 mph - N/A   Clear
3:34 PM 61.0 °F - 35.1 °F 38% 29.92 in 10.0 mi East 17.3 mph - N/A   Clear
3:53 PM 61.0 °F - 36.0 °F 39% 29.92 in 10.0 mi East 18.4 mph - N/A   Clear
4:53 PM 59.0 °F - 35.1 °F 41% 29.91 in 10.0 mi East 17.3 mph 24.2 mph N/A   Clear
5:53 PM 59.0 °F - 35.1 °F 41% 29.91 in 10.0 mi East 18.4 mph 24.2 mph N/A   Clear
6:53 PM 55.9 °F - 35.1 °F 45% 29.91 in 10.0 mi ENE 16.1 mph 28.8 mph N/A   Clear
7:53 PM 53.1 °F - 35.1 °F 50% 29.90 in 10.0 mi ENE 17.3 mph - N/A   Clear
8:53 PM 50.0 °F - 36.0 °F 59% 29.92 in 10.0 mi ENE 15.0 mph 27.6 mph N/A   Clear
9:53 PM 46.9 °F - 34.0 °F 61% 29.93 in 10.0 mi East 23.0 mph 32.2 mph N/A   Clear
10:53 PM 43.0 °F 34.2 °F 28.9 °F 58% 29.96 in 10.0 mi East 20.7 mph 31.1 mph N/A   Scattered Clouds
11:53 PM 42.1 °F 33.1 °F 28.9 °F 60% 29.96 in 10.0 mi ENE 20.7 mph - N/A   Mostly Cloudy